This is the latest recevied weather packets stored in our database for station/object XQ6AK-15. If no packets are shown the sender has not sent any weather packets the latest 10 day(s).
| Time | Temp. | Humidity | Pressure | Rain* | Wind** | Luminosity | Snow |
|---|---|---|---|---|---|---|---|
| 1787863461 | 8.33° C | 99% | 1002.4 hPa | 1.78 mm | - | 71 W/m² | - |
| 1787863157 | 8.33° C | 99% | 1002.4 hPa | 1.78 mm | - | 89 W/m² | - |
| 1787862853 | 8.33° C | 99% | 1002.2 hPa | 0 mm | - | 85 W/m² | - |
| 1787862552 | 8.33° C | 99% | 1002.2 hPa | 3.05 mm | - | 49 W/m² | - |
| 1787862247 | 8.33° C | 99% | 1002.3 hPa | 4.83 mm | - | 32 W/m² | - |
| 1787861942 | 8.33° C | 99% | 1003 hPa | 3.05 mm | - | 24 W/m² | - |
| 1787861642 | 8.33° C | 99% | 1002.9 hPa | 4.83 mm | - | 30 W/m² | - |
| 1787861340 | 8.33° C | 99% | 1002.7 hPa | 3.05 mm | - | 21 W/m² | - |
| 1787861035 | 8.33° C | 99% | 1002.9 hPa | 3.05 mm | - | 24 W/m² | - |
| 1787860734 | 8.33° C | 99% | 1002.7 hPa | 3.05 mm | - | 20 W/m² | - |
| 1787860430 | 8.33° C | 99% | 1002.4 hPa | 1.27 mm | - | 35 W/m² | - |
| 1787860129 | 8.33° C | 99% | 1002.5 hPa | 1.78 mm | - | 26 W/m² | - |
| 1787859825 | 8.33° C | 99% | 1001.9 hPa | 0 mm | - | 45 W/m² | - |
| 1787859525 | 8.33° C | 99% | 1001.6 hPa | 0 mm | - | 46 W/m² | - |
| 1787859219 | 8.33° C | 99% | 1001.6 hPa | 1.27 mm | - | 64 W/m² | - |
| 1787858916 | 8.33° C | 99% | 1001.7 hPa | 1.27 mm | - | 59 W/m² | - |
| 1787858612 | 8.33° C | 99% | 1002.3 hPa | 1.78 mm | - | 41 W/m² | - |
| 1787858306 | 8.33° C | 99% | 1002 hPa | 4.83 mm | - | 36 W/m² | - |
| 1787858001 | 8.33° C | 99% | 1002.4 hPa | 4.83 mm | - | 26 W/m² | - |
| 1787857697 | 8.33° C | 99% | 1002.2 hPa | 9.65 mm | - | 21 W/m² | - |
| 1787857393 | 8.33° C | 99% | 1002.5 hPa | 10.67 mm | - | 22 W/m² | - |
| 1787857090 | 8.89° C | 99% | 1002.7 hPa | 7.87 mm | - | 22 W/m² | - |
| 1787856785 | 8.89° C | 99% | 1002.8 hPa | 6.1 mm | - | 25 W/m² | - |
| 1787856479 | 9.44° C | 99% | 1002.8 hPa | 4.83 mm | - | 29 W/m² | - |
| 1787856175 | 9.44° C | 99% | 1002.6 hPa | 7.87 mm | - | 34 W/m² | - |
* Rain latest hour (hover to see other rain measurements)
** Current wind speed in m/s (hover to see current wind gust speed)